Location: Baumgartsau
(48.4586°N, 14.0864°E)
Time: 13:23:37
(UTC+00:00)

STARLINK-1245 - Pass Details

Date: 09 April 2020
Orbit: 548 x 551 km, 53.0° (Epoch: 28 May)

Event Time Altitude Azimuth Distance (km) Brightness Sun altitude
Rises 18:28:37 0° 295° (WNW) 2,720 9.7 -7.5°
Reaches altitude 10° 18:30:52 10° 293° (WNW) 1,824 8.1 -7.8°
Maximum altitude 18:34:59 68° 211° (SSW) 594 3.8 -8.5°
Enters shadow 18:38:53 11° 129° (SE) 1,742 5.6 -9.1°
